Time,TemperatureF,DewpointF,PressureIn,WindDirection,WindDirectionDegrees,WindSpeedMPH,WindSpeedGustMPH,Humidity,HourlyPrecipIn,Conditions,Clouds,dailyrainin,SolarRadiationWatts/m^2,SoftwareType,DateUTC
2013-01-15 00:22:00,-10.0,-17.0,-100.00,East,82,3.0,5.0,71,0.00,,,0.00,0.000000,,2013-01-15 07:22:00,
2013-01-15 00:33:00,-10.0,-17.0,-100.00,East,82,3.0,5.0,71,0.00,,,0.00,0.000000,,2013-01-15 07:33:00,
2013-01-15 00:42:00,-10.0,-17.0,-100.00,East,82,3.0,5.0,71,0.00,,,0.00,0.000000,,2013-01-15 07:42:00,
2013-01-15 00:52:00,-10.0,-17.0,-100.00,East,82,3.0,5.0,71,0.00,,,0.00,0.000000,,2013-01-15 07:52:00,
2013-01-15 01:22:00,-12.0,-19.0,-100.00,ESE,112,2.0,5.0,71,0.00,,,0.00,0.000000,,2013-01-15 08:22:00,
2013-01-15 01:33:00,-12.0,-19.0,-100.00,ESE,112,2.0,5.0,71,0.00,,,0.00,0.000000,,2013-01-15 08:33:00,
2013-01-15 01:42:00,-12.0,-19.0,-100.00,ESE,112,2.0,5.0,71,0.00,,,0.00,0.000000,,2013-01-15 08:42:00,
2013-01-15 01:52:00,-12.0,-19.0,-100.00,ESE,112,2.0,5.0,71,0.00,,,0.00,0.000000,,2013-01-15 08:52:00,
2013-01-15 02:22:00,-13.0,-20.0,-100.00,ENE,78,4.0,5.0,69,0.00,,,0.00,0.000000,,2013-01-15 09:22:00,
2013-01-15 02:33:00,-13.0,-20.0,-100.00,ENE,78,4.0,5.0,69,0.00,,,0.00,0.000000,,2013-01-15 09:33:00,
2013-01-15 02:42:00,-13.0,-20.0,-100.00,ENE,78,4.0,5.0,69,0.00,,,0.00,0.000000,,2013-01-15 09:42:00,
2013-01-15 02:52:00,-13.0,-20.0,-100.00,ENE,78,4.0,5.0,69,0.00,,,0.00,0.000000,,2013-01-15 09:52:00,
2013-01-15 03:22:00,-13.0,-20.0,-100.00,ENE,73,3.0,6.0,69,0.00,,,0.00,0.000000,,2013-01-15 10:22:00,
2013-01-15 03:32:00,-13.0,-20.0,-100.00,ENE,73,3.0,6.0,69,0.00,,,0.00,0.000000,,2013-01-15 10:32:00,
2013-01-15 03:42:00,-13.0,-20.0,-100.00,ENE,73,3.0,6.0,69,0.00,,,0.00,0.000000,,2013-01-15 10:42:00,
2013-01-15 03:52:00,-13.0,-20.0,-100.00,ENE,73,3.0,6.0,69,0.00,,,0.00,0.000000,,2013-01-15 10:52:00,
2013-01-15 04:12:00,-13.0,-20.0,-100.00,East,79,2.0,5.0,69,0.00,,,0.00,0.000000,,2013-01-15 11:12:00,
2013-01-15 04:22:00,-13.0,-20.0,-100.00,East,79,2.0,5.0,69,0.00,,,0.00,0.000000,,2013-01-15 11:22:00,
2013-01-15 04:33:00,-13.0,-20.0,-100.00,East,79,2.0,5.0,69,0.00,,,0.00,0.000000,,2013-01-15 11:33:00,
2013-01-15 04:42:00,-13.0,-20.0,-100.00,East,79,2.0,5.0,69,0.00,,,0.00,0.000000,,2013-01-15 11:42:00,
2013-01-15 04:52:00,-13.0,-20.0,-100.00,East,79,2.0,5.0,69,0.00,,,0.00,0.000000,,2013-01-15 11:52:00,
2013-01-15 05:22:00,-14.0,-21.0,-100.00,East,93,3.0,6.0,68,0.00,,,0.00,0.000000,,2013-01-15 12:22:00,
2013-01-15 05:33:00,-14.0,-21.0,-100.00,East,93,3.0,6.0,68,0.00,,,0.00,0.000000,,2013-01-15 12:33:00,
2013-01-15 05:42:00,-14.0,-21.0,-100.00,East,93,3.0,6.0,68,0.00,,,0.00,0.000000,,2013-01-15 12:42:00,
2013-01-15 05:53:00,-14.0,-21.0,-100.00,East,93,3.0,6.0,68,0.00,,,0.00,0.000000,,2013-01-15 12:53:00,
2013-01-15 06:23:00,-12.0,-19.0,-100.00,ENE,67,3.0,5.0,69,0.00,,,0.00,0.000000,,2013-01-15 13:23:00,
2013-01-15 06:33:00,-12.0,-19.0,-100.00,ENE,67,3.0,5.0,69,0.00,,,0.00,0.000000,,2013-01-15 13:33:00,
2013-01-15 06:43:00,-12.0,-19.0,-100.00,ENE,67,3.0,5.0,69,0.00,,,0.00,0.000000,,2013-01-15 13:43:00,
2013-01-15 06:53:00,-12.0,-19.0,-100.00,ENE,67,3.0,5.0,69,0.00,,,0.00,0.000000,,2013-01-15 13:53:00,
2013-01-15 07:23:00,-13.0,-20.0,-100.00,East,91,3.0,6.0,68,0.00,,,0.00,0.000000,,2013-01-15 14:23:00,
2013-01-15 07:33:00,-13.0,-20.0,-100.00,East,91,3.0,6.0,68,0.00,,,0.00,0.000000,,2013-01-15 14:33:00,
2013-01-15 07:43:00,-13.0,-20.0,-100.00,East,91,3.0,6.0,68,0.00,,,0.00,0.000000,,2013-01-15 14:43:00,
2013-01-15 07:53:00,-13.0,-20.0,-100.00,East,91,3.0,6.0,68,0.00,,,0.00,0.000000,,2013-01-15 14:53:00,
2013-01-15 08:23:00,-11.0,-18.0,-100.00,ENE,78,3.0,5.0,69,0.00,,,0.00,6.000000,,2013-01-15 15:23:00,
2013-01-15 08:33:00,-11.0,-18.0,-100.00,ENE,78,3.0,5.0,69,0.00,,,0.00,6.000000,,2013-01-15 15:33:00,
2013-01-15 08:43:00,-11.0,-18.0,-100.00,ENE,78,3.0,5.0,69,0.00,,,0.00,6.000000,,2013-01-15 15:43:00,
2013-01-15 08:53:00,-11.0,-18.0,-100.00,ENE,78,3.0,5.0,69,0.00,,,0.00,6.000000,,2013-01-15 15:53:00,
2013-01-15 09:22:00,-6.0,-14.0,-100.00,East,88,3.0,4.0,67,0.00,,,0.00,72.000000,,2013-01-15 16:22:00,
2013-01-15 09:33:00,-6.0,-14.0,-100.00,East,88,3.0,4.0,67,0.00,,,0.00,72.000000,,2013-01-15 16:33:00,
2013-01-15 09:42:00,-6.0,-14.0,-100.00,East,88,3.0,4.0,67,0.00,,,0.00,72.000000,,2013-01-15 16:42:00,
2013-01-15 09:53:00,-6.0,-14.0,-100.00,East,88,3.0,4.0,67,0.00,,,0.00,72.000000,,2013-01-15 16:53:00,
2013-01-15 11:23:00,2.0,-9.0,-100.00,SE,124,2.0,4.0,58,-99.99,,,0.00,221.000000,,2013-01-15 18:23:00,
2013-01-15 11:33:00,2.0,-9.0,-100.00,SE,124,2.0,4.0,58,-99.99,,,0.00,221.000000,,2013-01-15 18:33:00,
2013-01-15 11:43:00,2.0,-9.0,-100.00,SE,124,2.0,4.0,58,-99.99,,,0.00,221.000000,,2013-01-15 18:43:00,
2013-01-15 11:53:00,2.0,-9.0,-100.00,SE,124,2.0,4.0,58,-99.99,,,0.00,221.000000,,2013-01-15 18:53:00,
2013-01-15 12:23:00,0.0,-11.0,-100.00,WSW,254,5.0,7.0,58,0.00,,,0.00,277.000000,,2013-01-15 19:23:00,
2013-01-15 12:33:00,0.0,-11.0,-100.00,WSW,254,5.0,7.0,58,0.00,,,0.00,277.000000,,2013-01-15 19:33:00,
2013-01-15 12:42:00,0.0,-11.0,-100.00,WSW,254,5.0,7.0,58,0.00,,,0.00,277.000000,,2013-01-15 19:42:00,
2013-01-15 12:53:00,0.0,-11.0,-100.00,WSW,254,5.0,7.0,58,0.00,,,0.00,277.000000,,2013-01-15 19:53:00,
2013-01-15 13:23:00,-1.0,-11.0,-100.00,West,273,7.0,9.0,62,0.00,,,0.00,254.000000,,2013-01-15 20:23:00,
2013-01-15 13:33:00,-1.0,-11.0,-100.00,West,273,7.0,9.0,62,0.00,,,0.00,254.000000,,2013-01-15 20:33:00,
2013-01-15 13:43:00,-1.0,-11.0,-100.00,West,273,7.0,9.0,62,0.00,,,0.00,254.000000,,2013-01-15 20:43:00,
2013-01-15 13:52:00,-1.0,-11.0,-100.00,West,273,7.0,9.0,62,0.00,,,0.00,254.000000,,2013-01-15 20:52:00,
2013-01-15 14:23:00,-1.0,-11.0,-100.00,West,261,7.0,10.0,63,0.00,,,0.00,206.000000,,2013-01-15 21:23:00,
2013-01-15 14:33:00,-1.0,-11.0,-100.00,West,261,7.0,10.0,63,0.00,,,0.00,206.000000,,2013-01-15 21:33:00,
2013-01-15 14:43:00,-1.0,-11.0,-100.00,West,261,7.0,10.0,63,0.00,,,0.00,206.000000,,2013-01-15 21:43:00,
2013-01-15 14:52:00,-1.0,-11.0,-100.00,West,261,7.0,10.0,63,0.00,,,0.00,206.000000,,2013-01-15 21:52:00,
2013-01-15 15:23:00,0.0,-9.0,-100.00,West,265,7.0,9.0,64,0.00,,,0.00,151.000000,,2013-01-15 22:23:00,
2013-01-15 15:33:00,0.0,-9.0,-100.00,West,265,7.0,9.0,64,0.00,,,0.00,151.000000,,2013-01-15 22:33:00,
2013-01-15 15:43:00,0.0,-9.0,-100.00,West,265,7.0,9.0,64,0.00,,,0.00,151.000000,,2013-01-15 22:43:00,
2013-01-15 15:52:00,0.0,-9.0,-100.00,West,265,7.0,9.0,64,0.00,,,0.00,151.000000,,2013-01-15 22:52:00,
2013-01-15 16:22:00,0.0,-8.0,-100.00,West,271,6.0,11.0,69,0.00,,,0.00,82.000000,,2013-01-15 23:22:00,
2013-01-15 16:33:00,0.0,-8.0,-100.00,West,271,6.0,11.0,69,0.00,,,0.00,82.000000,,2013-01-15 23:33:00,
2013-01-15 16:43:00,0.0,-8.0,-100.00,West,271,6.0,11.0,69,0.00,,,0.00,82.000000,,2013-01-15 23:43:00,
2013-01-15 16:53:00,0.0,-8.0,-100.00,West,271,6.0,11.0,69,0.00,,,0.00,82.000000,,2013-01-15 23:53:00,
2013-01-15 17:22:00,0.0,-6.0,-100.00,East,100,3.0,7.0,75,0.00,,,0.00,29.000000,,2013-01-16 00:22:00,
2013-01-15 17:33:00,0.0,-6.0,-100.00,East,100,3.0,7.0,75,0.00,,,0.00,29.000000,,2013-01-16 00:33:00,
2013-01-15 17:43:00,0.0,-6.0,-100.00,East,100,3.0,7.0,75,0.00,,,0.00,29.000000,,2013-01-16 00:43:00,
2013-01-15 17:52:00,0.0,-6.0,-100.00,East,100,3.0,7.0,75,0.00,,,0.00,29.000000,,2013-01-16 00:52:00,
2013-01-15 18:22:00,0.0,-5.0,-100.00,ENE,77,6.0,12.0,80,0.00,,,0.00,2.000000,,2013-01-16 01:22:00,
2013-01-15 18:33:00,0.0,-5.0,-100.00,ENE,77,6.0,12.0,80,0.00,,,0.00,2.000000,,2013-01-16 01:33:00,
2013-01-15 18:42:00,0.0,-5.0,-100.00,ENE,77,6.0,12.0,80,0.00,,,0.00,2.000000,,2013-01-16 01:42:00,
2013-01-15 18:52:00,0.0,-5.0,-100.00,ENE,77,6.0,12.0,80,0.00,,,0.00,2.000000,,2013-01-16 01:52:00,
2013-01-15 19:22:00,0.0,-4.0,-100.00,West,273,8.0,11.0,81,0.00,,,0.00,0.000000,,2013-01-16 02:22:00,
2013-01-15 19:32:00,0.0,-4.0,-100.00,West,273,8.0,11.0,81,0.00,,,0.00,0.000000,,2013-01-16 02:32:00,
2013-01-15 19:42:00,0.0,-4.0,-100.00,West,273,8.0,11.0,81,0.00,,,0.00,0.000000,,2013-01-16 02:42:00,
2013-01-15 19:52:00,0.0,-4.0,-100.00,West,273,8.0,11.0,81,0.00,,,0.00,0.000000,,2013-01-16 02:52:00,
2013-01-15 20:22:00,0.0,-5.0,-100.00,West,274,4.0,10.0,80,0.00,,,0.00,0.000000,,2013-01-16 03:22:00,
2013-01-15 20:33:00,0.0,-5.0,-100.00,West,274,4.0,10.0,80,0.00,,,0.00,0.000000,,2013-01-16 03:33:00,
2013-01-15 20:43:00,0.0,-5.0,-100.00,West,274,4.0,10.0,80,0.00,,,0.00,0.000000,,2013-01-16 03:43:00,
2013-01-15 20:52:00,0.0,-5.0,-100.00,West,274,4.0,10.0,80,0.00,,,0.00,0.000000,,2013-01-16 03:52:00,
2013-01-15 21:22:00,0.0,-4.0,-100.00,ENE,74,6.0,8.0,81,0.00,,,0.00,0.000000,,2013-01-16 04:22:00,
2013-01-15 21:32:00,0.0,-4.0,-100.00,ENE,74,6.0,8.0,81,0.00,,,0.00,0.000000,,2013-01-16 04:32:00,
2013-01-15 21:42:00,0.0,-4.0,-100.00,ENE,74,6.0,8.0,81,0.00,,,0.00,0.000000,,2013-01-16 04:42:00,
2013-01-15 21:52:00,0.0,-4.0,-100.00,ENE,74,6.0,8.0,81,0.00,,,0.00,0.000000,,2013-01-16 04:52:00,
2013-01-15 22:22:00,2.0,-3.0,-100.00,WNW,286,3.0,9.0,80,0.00,,,0.00,0.000000,,2013-01-16 05:22:00,
2013-01-15 22:32:00,2.0,-3.0,-100.00,WNW,286,3.0,9.0,80,0.00,,,0.00,0.000000,,2013-01-16 05:32:00,
2013-01-15 22:42:00,2.0,-3.0,-100.00,WNW,286,3.0,9.0,80,0.00,,,0.00,0.000000,,2013-01-16 05:42:00,
2013-01-15 22:53:00,2.0,-3.0,-100.00,WNW,286,3.0,9.0,80,0.00,,,0.00,0.000000,,2013-01-16 05:53:00,
2013-01-15 23:22:00,1.0,-3.0,-100.00,WSW,258,3.0,8.0,81,0.00,,,0.00,0.000000,,2013-01-16 06:22:00,
2013-01-15 23:32:00,1.0,-3.0,-100.00,WSW,258,3.0,8.0,81,0.00,,,0.00,0.000000,,2013-01-16 06:32:00,
2013-01-15 23:43:00,1.0,-3.0,-100.00,WSW,258,3.0,8.0,81,0.00,,,0.00,0.000000,,2013-01-16 06:43:00,
2013-01-15 23:52:00,1.0,-3.0,-100.00,WSW,258,3.0,8.0,81,0.00,,,0.00,0.000000,,2013-01-16 06:52:00,